Meteo pe oră la Aberdare

Astăzi, 5 August, Joi

Timp Temperatura Precipitaţii Vânt Presiune Umiditate
00:00 +13°C° 0 mm 1 m/s 735 mmHg 91%
01:00 +12°C° 0 mm 2 m/s 735 mmHg 93%
02:00 +12°C° 0 mm 2 m/s 734 mmHg 94%
03:00 +11°C° 0 mm 3 m/s 734 mmHg 95%
04:00 +12°C° 0 mm 3 m/s 733 mmHg 95%
05:00 +12°C° 0 mm 4 m/s 732 mmHg 95%
06:00 +12°C° 0 mm 4 m/s 732 mmHg 95%
07:00 +13°C° 0.2 mm 5 m/s 731 mmHg 95%
08:00 +13°C° 0.2 mm 6 m/s 730 mmHg 94%
09:00 +14°C° 0.2 mm 7 m/s 730 mmHg 93%
10:00 +14°C° 0.6 mm 7 m/s 729 mmHg 94%
11:00 +14°C° 0.6 mm 7 m/s 728 mmHg 95%
12:00 +14°C° 0.6 mm 7 m/s 728 mmHg 96%
13:00 +14°C° 0.8 mm 7 m/s 727 mmHg 94%
14:00 +15°C° 0.8 mm 6 m/s 727 mmHg 92%
15:00 +16°C° 0.8 mm 5 m/s 726 mmHg 90%
16:00 +16°C° 0.4 mm 5 m/s 726 mmHg 89%
17:00 +16°C° 0.4 mm 5 m/s 725 mmHg 89%
18:00 +16°C° 0.4 mm 5 m/s 725 mmHg 88%
19:00 +15°C° 0.3 mm 4 m/s 725 mmHg 91%
20:00 +14°C° 0.3 mm 4 m/s 725 mmHg 94%
21:00 +13°C° 0.3 mm 3 m/s 725 mmHg 96%
22:00 +13°C° 0.2 mm 4 m/s 725 mmHg 96%
23:00 +13°C° 0.2 mm 4 m/s 725 mmHg 96%

Mâine, 6 August, Vineri

Timp Temperatura Precipitaţii Vânt Presiune Umiditate
00:00 +13°C° 0.2 mm 4 m/s 724 mmHg 96%
01:00 +13°C° 0.3 mm 5 m/s 724 mmHg 96%
02:00 +13°C° 0.3 mm 5 m/s 724 mmHg 96%
03:00 +14°C° 0.3 mm 6 m/s 724 mmHg 96%
04:00 +14°C° 0.2 mm 6 m/s 724 mmHg 95%
05:00 +12°C° 0.2 mm 7 m/s 725 mmHg 94%
06:00 +12°C° 0.2 mm 7 m/s 725 mmHg 94%
07:00 +14°C° 0.3 mm 7 m/s 725 mmHg 92%
08:00 +13°C° 0.3 mm 8 m/s 726 mmHg 91%
09:00 +13°C° 0.3 mm 8 m/s 726 mmHg 89%
10:00 +15°C° 0.2 mm 9 m/s 727 mmHg 85%
11:00 +15°C° 0.2 mm 9 m/s 727 mmHg 81%
12:00 +16°C° 0.2 mm 9 m/s 727 mmHg 77%
13:00 +16°C° 0.3 mm 9 m/s 727 mmHg 77%
14:00 +16°C° 0.3 mm 9 m/s 727 mmHg 78%
15:00 +16°C° 0.3 mm 9 m/s 728 mmHg 78%
16:00 +15°C° 0.2 mm 9 m/s 728 mmHg 81%
17:00 +15°C° 0.2 mm 9 m/s 728 mmHg 84%
18:00 +13°C° 0.2 mm 8 m/s 728 mmHg 87%
19:00 +13°C° 0.1 mm 8 m/s 728 mmHg 88%
20:00 +12°C° 0.1 mm 8 m/s 728 mmHg 90%
21:00 +11°C° 0.1 mm 7 m/s 728 mmHg 92%
22:00 +11°C° 0.1 mm 7 m/s 728 mmHg 92%
23:00 +11°C° 0.1 mm 7 m/s 728 mmHg 91%

Poimâine, 7 August, Sâmbătă

Timp Temperatura Precipitaţii Vânt Presiune Umiditate
00:00 +12°C° 0.1 mm 7 m/s 728 mmHg 91%
01:00 +13°C° 0.1 mm 6 m/s 727 mmHg 91%
02:00 +11°C° 0.1 mm 6 m/s 727 mmHg 91%
03:00 +12°C° 0.1 mm 5 m/s 727 mmHg 91%
04:00 +13°C° 0.1 mm 5 m/s 727 mmHg 91%
05:00 +13°C° 0.1 mm 5 m/s 726 mmHg 91%
06:00 +13°C° 0.1 mm 4 m/s 726 mmHg 91%
07:00 +13°C° 0.1 mm 4 m/s 726 mmHg 88%
08:00 +14°C° 0.1 mm 5 m/s 726 mmHg 86%
09:00 +15°C° 0.1 mm 5 m/s 726 mmHg 83%
10:00 +15°C° 0.2 mm 5 m/s 726 mmHg 80%
11:00 +16°C° 0.2 mm 6 m/s 726 mmHg 78%
12:00 +16°C° 0.2 mm 6 m/s 726 mmHg 75%
13:00 +16°C° 0.3 mm 6 m/s 726 mmHg 78%
14:00 +16°C° 0.3 mm 6 m/s 726 mmHg 80%
15:00 +16°C° 0.3 mm 6 m/s 726 mmHg 83%
16:00 +15°C° 0.3 mm 5 m/s 726 mmHg 85%
17:00 +15°C° 0.3 mm 5 m/s 726 mmHg 88%
18:00 +15°C° 0.3 mm 5 m/s 726 mmHg 90%
19:00 +14°C° 0.1 mm 5 m/s 727 mmHg 91%
20:00 +14°C° 0.1 mm 5 m/s 727 mmHg 92%
21:00 +13°C° 0.1 mm 5 m/s 727 mmHg 93%
22:00 +13°C° 0 mm 6 m/s 728 mmHg 93%
23:00 +13°C° 0 mm 6 m/s 728 mmHg 92%

8 August, Duminică

Timp Temperatura Precipitaţii Vânt Presiune Umiditate
00:00 +11°C° 0 mm 7 m/s 728 mmHg 91%
01:00 +11°C° 0.1 mm 7 m/s 729 mmHg 92%
02:00 +11°C° 0.1 mm 7 m/s 729 mmHg 93%
03:00 +11°C° 0.1 mm 8 m/s 729 mmHg 94%
04:00 +11°C° 0.1 mm 8 m/s 729 mmHg 94%
05:00 +11°C° 0.1 mm 8 m/s 730 mmHg 93%
06:00 +11°C° 0.1 mm 8 m/s 730 mmHg 92%
07:00 +12°C° 0.1 mm 8 m/s 731 mmHg 89%
08:00 +12°C° 0.1 mm 8 m/s 731 mmHg 86%
09:00 +13°C° 0.1 mm 8 m/s 732 mmHg 83%
10:00 +15°C° 0.1 mm 8 m/s 732 mmHg 78%
11:00 +15°C° 0.1 mm 8 m/s 733 mmHg 73%
12:00 +16°C° 0.1 mm 8 m/s 733 mmHg 68%
13:00 +16°C° 0 mm 8 m/s 734 mmHg 67%
14:00 +16°C° 0 mm 8 m/s 734 mmHg 66%
15:00 +16°C° 0 mm 8 m/s 734 mmHg 66%
16:00 +16°C° 0 mm 7 m/s 735 mmHg 69%
17:00 +15°C° 0 mm 7 m/s 735 mmHg 72%
18:00 +14°C° 0 mm 6 m/s 735 mmHg 76%
19:00 +13°C° 0 mm 5 m/s 736 mmHg 81%
20:00 +12°C° 0 mm 4 m/s 736 mmHg 87%
21:00 +11°C° 0 mm 3 m/s 737 mmHg 93%
22:00 +11°C° 0 mm 3 m/s 737 mmHg 94%
23:00 +11°C° 0 mm 3 m/s 737 mmHg 95%

9 August, Luni

Timp Temperatura Precipitaţii Vânt Presiune Umiditate
00:00 +12°C° 0 mm 2 m/s 737 mmHg 96%
01:00 +12°C° 0.1 mm 2 m/s 737 mmHg 97%
02:00 +12°C° 0.1 mm 2 m/s 737 mmHg 97%
03:00 +12°C° 0.1 mm 2 m/s 738 mmHg 97%
04:00 +12°C° 0 mm 2 m/s 738 mmHg 97%
05:00 +13°C° 0 mm 2 m/s 738 mmHg 97%
06:00 +13°C° 0 mm 2 m/s 738 mmHg 96%
07:00 +13°C° 0 mm 3 m/s 739 mmHg 90%
08:00 +16°C° 0 mm 3 m/s 739 mmHg 84%
09:00 +17°C° 0 mm 4 m/s 740 mmHg 78%
10:00 +17°C° 0 mm 5 m/s 740 mmHg 75%
11:00 +19°C° 0 mm 5 m/s 741 mmHg 71%
12:00 +20°C° 0 mm 6 m/s 741 mmHg 68%
13:00 +19°C° 0 mm 6 m/s 741 mmHg 69%
14:00 +19°C° 0 mm 6 m/s 741 mmHg 71%
15:00 +18°C° 0 mm 7 m/s 742 mmHg 73%
16:00 +19°C° 0 mm 6 m/s 742 mmHg 76%
17:00 +17°C° 0 mm 6 m/s 742 mmHg 79%
18:00 +16°C° 0 mm 6 m/s 742 mmHg 83%
19:00 +15°C° 0 mm 5 m/s 742 mmHg 87%
20:00 +14°C° 0 mm 4 m/s 743 mmHg 92%
21:00 +13°C° 0 mm 3 m/s 743 mmHg 96%
22:00 +13°C° 0 mm 3 m/s 743 mmHg 96%
23:00 +13°C° 0 mm 3 m/s 743 mmHg 95%

10 August, Marţi

Timp Temperatura Precipitaţii Vânt Presiune Umiditate
00:00 +14°C° 0 mm 3 m/s 743 mmHg 95%
01:00 +14°C° 0 mm 3 m/s 743 mmHg 95%
02:00 +14°C° 0 mm 4 m/s 743 mmHg 94%
03:00 +14°C° 0 mm 4 m/s 743 mmHg 94%
04:00 +14°C° 0 mm 4 m/s 743 mmHg 94%
05:00 +14°C° 0 mm 4 m/s 743 mmHg 95%
06:00 +14°C° 0 mm 4 m/s 743 mmHg 95%
07:00 +15°C° 0 mm 4 m/s 743 mmHg 90%
08:00 +17°C° 0 mm 4 m/s 743 mmHg 86%
09:00 +18°C° 0 mm 4 m/s 743 mmHg 82%
10:00 +19°C° 0 mm 4 m/s 743 mmHg 78%
11:00 +20°C° 0 mm 5 m/s 743 mmHg 74%
12:00 +21°C° 0 mm 5 m/s 743 mmHg 70%
13:00 +21°C° 0 mm 5 m/s 742 mmHg 70%
14:00 +21°C° 0 mm 5 m/s 742 mmHg 70%
15:00 +21°C° 0 mm 5 m/s 742 mmHg 70%
16:00 +20°C° 0 mm 5 m/s 742 mmHg 76%
17:00 +19°C° 0 mm 5 m/s 741 mmHg 82%
18:00 +17°C° 0 mm 5 m/s 741 mmHg 88%
19:00 +17°C° 0.1 mm 5 m/s 741 mmHg 91%
20:00 +17°C° 0.1 mm 4 m/s 741 mmHg 94%
21:00 +17°C° 0.1 mm 4 m/s 741 mmHg 96%
22:00 +17°C° 0.2 mm 4 m/s 741 mmHg 96%
23:00 +16°C° 0.2 mm 5 m/s 741 mmHg 96%
Arată mai mult

Formular de consimțământ

Meteoprog și furnizorii noștri de servicii pot stoca și accesa date personale, precum cookies, identificatori de dispozitiv sau alte tehnologii similare pe dispozitivul dumneavoastră și procesa astfel de date pentru a personaliza conținutul și reclamele, dar și pentru a oferi caracteristici de social media și pentru a analiza traficul.

  • Stocarea și/sau accesarea informațiilor pe dispozitivul dumneavoastră

    Cookies, identificatori de dispozitiv sau alte informații pot fi stocate sau accesate pe dispozitiv în scopurile indicate mai sus.

  • Reclame și conținut personalizat, evaluarea reclamelor și a conținutului, informații despre audiențe și dezvoltarea produselor

    Reclamele și conținutul pot fi personalizate pe baza unui profil. Pot fi adăugate date suplimentare pentru a personaliza mai bine reclamele și conținutul. Performanța reclamelor și conținutului poate fi măsurată. Pot fi obținute informații despre utilizatorii care au văzut reclamele și conținutul. Aceste date pot fi utilizate pentru a dezvolta sau îmbunătăți experiența utilizatorilor, sistemele și software-ul.

Dând clic pe ‘Sunt de acord’, permiteți utilizarea cookie-urilor menționate, a identificatorilor de dispozitiv, balizelor web sau altor tehnologii similare. Setările pot fi modificate din browser-ul dispozitivului dumneavoastră.

În anumite scopuri, interesele legitime pot prima asupra consimțământului. Puteți citi mai multe informații în acest sens în Politica privind Confidențialitatea Datelor și Cookie.